User: anonymous   Login
Location: Unspecified
(0.0000°N, 0.0000°E)
Time: 08:45:37
(UTC+00:00)
Language:

AO-7 - Orbit

View from above orbital plane
View from above orbital plane
View from above satellite
View from above satellite

Ground track
Ground track

The orbit data is extracted from the following two-line orbital elements,

1  7530U 74089B   19083.21265253 -.00000042  00000-0  17808-4 0  9995
2  7530 101.7341  51.7961 0012237 152.5474 325.1491 12.53637216 29682
Epoch (UTC): 24 March 2019 05:06:13
Eccentricity: 0.0012237
inclination: 101.7341°
perigee height: 1440 km
apogee height: 1459 km
right ascension of ascending node: 51.7961°
argument of perigee: 152.5474°
revolutions per day: 12.53637216
mean anomaly at epoch: 325.1491°
orbit number at epoch: 2968

The dashed part of the orbit path shows where the satellite is in the earth's shadow,  

DLR